Location: *
(37.4917°N, 71.5558°E)
Time: 20:51:12
(UTC+00:00)

Geosat - Pass Details

Date: 09 April 2020
Orbit: 763 x 766 km, 108.0° (Epoch: 31 May)

Event Time Altitude Azimuth Distance (km) Brightness Sun altitude
Rises 23:37:00 0° 21° (NNE) 3,237 7.9 -13.9°
Reaches altitude 10° 23:39:18 10° 18° (NNE) 2,308 7.0 -13.5°
Maximum altitude 23:44:16 62° 298° (WNW) 861 4.1 -12.6°
Enters shadow 23:48:59 11° 219° (SW) 2,215 5.9 -11.7°
